[[{"header":{"parameterUnit":"m.s-1","parameterCategory":1,"la1":30.2991,"la2":30.254,"lo1":-89.0895,"lo2":-89.0444,"dy":0.0017,"dx":0.0017,"nx":28,"ny":28,"refTime":"2026-03-05T09:00:00:Z","depth":0,"parameterNumber":2,"parameterNumberName":"U-component_of_WINDS"},"data":[0,0,0,0,0,0,0,0,0,0,0,0,0,0,0,0,0,0,0,0,0,0,0,0,0,0,0,0,0,0,0,0,0,0,0,0,0,0,0,0,0,0,0,0,0,0,0,0,0,0,0,0,0,0,0,0,0,0,-3.5013,-3.5014,0,-3.5085,-3.5086,-3.5087,-3.5046,-3.5043,-3.5041,-3.504,-3.5116,-3.5119,-3.5123,0,0,0,0,0,0,0,0,0,0,0,0,0,-3.4842,-3.4845,-3.5013,-3.5014,-3.5015,-3.5085,-3.5086,-3.5087,-3.5046,-3.5043,-3.5041,-3.5039,-3.5114,-3.5119,-3.5124,0,0,0,0,0,0,0,0,0,0,0,0,0,-3.4916,-3.4847,-3.5013,-3.5003,-3.5002,-3.5085,-3.5086,-3.5088,-3.5046,-3.5043,-3.504,-3.5037,-3.5113,-3.5118,-3.5124,-3.5222,0,0,-3.5142,-3.5145,0,0,0,0,0,0,0,0,-3.4912,-3.4922,-3.5003,-3.5004,-3.5003,-3.5053,-3.5054,-3.5133,-3.5047,-3.503,-3.5039,-3.5036,-3.5097,-3.5104,-3.5125,-3.5225,-3.5228,-3.5143,-3.5146,-3.5149,-3.515,0,0,0,0,0,0,0,-3.4907,-3.4919,-3.5042,-3.5005,-3.5005,-3.4995,-3.5003,-3.5069,-3.508,-3.5031,-3.5028,-3.5037,-3.5097,-3.5119,-3.5126,-3.523,-3.5143,-3.5148,-3.5151,-3.5154,-3.5415,-3.5418,0,0,0,0,0,0,-3.4902,-3.4915,-3.5039,-3.5044,-3.4949,-3.5001,-3.5009,-3.504,-3.5079,-3.5082,-3.504,-3.5035,-3.5111,-3.5119,-3.5129,-3.5245,-3.5149,-3.5154,-3.5158,-3.5412,-3.5416,-3.542,0,0,0,0,0,0,-3.4898,-3.4913,-3.5037,-3.4979,-3.4994,-3.5007,-3.5043,-3.5043,-3.5065,-3.5086,-3.5088,-3.506,-3.5109,-3.512,-3.5199,-3.5247,-3.5157,-3.5162,-3.5408,-3.5413,-3.5418,-3.5479,0,0,0,0,0,0,-3.4894,-3.4912,-3.4948,-3.498,-3.4997,-3.5105,-3.5046,-3.5047,-3.5076,-3.507,-3.5105,-3.5108,-3.5107,-3.519,-3.5205,-3.5254,-3.5167,-3.5403,-3.541,-3.5416,-3.5473,-3.5486,-3.5497,0,0,0,0,0,-3.4888,-3.4963,-3.495,-3.4966,-3.5042,-3.5107,-3.5117,-3.5114,-3.508,-3.5117,-3.513,-3.5107,-3.524,-3.5199,-3.5215,-3.5266,-3.54,-3.5408,-3.5416,-3.5468,-3.5483,-3.5497,0,0,0,0,0,0,-3.4937,-3.4967,-3.4953,-3.5041,-3.5072,-3.51,-3.5146,-3.5131,-3.5172,-3.5165,-3.516,-3.5169,-3.525,-3.5267,-3.522,-3.5363,-3.5315,-3.5326,-3.5349,-3.5364,-3.5376,-3.537,-3.5172,0,0,0,0,0,-3.4958,-3.5008,-3.5032,-3.5107,-3.5123,-3.5133,-3.5161,-3.5156,-3.5188,-3.5201,-3.522,-3.5253,-3.5302,-3.5334,-3.5381,-3.5476,-3.5483,-3.552,-3.5532,-3.5541,-3.5551,-3.5603,-3.5619,-3.5445,-3.5445,-3.5445,0,0,-3.5002,-3.5025,-3.5056,-3.5118,-3.5141,-3.5193,-3.5144,-3.5201,-3.524,-3.521,-3.5284,-3.53,-3.5337,-3.5424,-3.5464,-3.544,-3.5601,-3.5551,-3.5559,-3.5563,-3.5612,-3.5629,-3.5644,-3.545,-3.5449,-3.5448,0,0,-3.5109,-3.5131,-3.5196,-3.5221,-3.5257,-3.5263,-3.5279,-3.5311,-3.532,-3.5395,-3.5374,-3.5421,-3.5506,-3.5533,-3.5558,-3.5678,-3.5659,-3.5694,-3.5755,-3.5806,-3.582,-3.5832,-3.5875,-3.589,-3.5703,-3.5703,-3.5703,0,-3.5159,-3.5236,-3.5232,-3.5291,-3.5319,-3.5295,-3.5361,-3.5386,-3.5436,-3.5456,-3.5429,-3.5536,-3.5559,-3.5652,-3.5682,-3.5703,-3.5722,-3.5688,-3.5818,-3.5831,-3.5842,-3.5882,-3.5898,-3.5707,-3.5707,-3.5706,-3.5706,0,-3.5296,-3.535,-3.5399,-3.5447,-3.5481,-3.5544,-3.555,-3.5585,-3.5578,-3.5588,-3.5665,-3.5693,-3.5744,-3.5767,-3.576,-3.586,-3.5844,-3.5819,-3.577,-3.5862,-3.59,-3.5916,-3.5713,-3.5711,-3.571,-3.5709,0,0,-3.5432,-3.548,-3.5497,-3.552,-3.5559,-3.5601,-3.5664,-3.5715,-3.5745,-3.5781,-3.5834,-3.5908,-3.5884,-3.5913,-3.591,-3.5955,-3.6048,-3.5923,-3.5924,-3.5945,-3.616,-3.6178,-3.6196,-3.6037,-3.604,-3.6042,-3.6157,0,-3.5541,-3.5649,-3.5648,-3.5748,-3.5799,-3.5778,-3.5833,-3.5864,-3.5875,-3.5921,-3.5934,-3.5986,-3.5951,-3.5968,-3.6012,-3.6027,-3.6091,-3.6019,-3.6086,-3.6088,-3.6075,-3.6216,-3.6235,-3.6341,-3.6172,-3.6174,-3.6176,0,-3.568,-3.5721,-3.5826,-3.586,-3.5881,-3.593,-3.5977,-3.6021,-3.6056,-3.6062,-3.6095,-3.6086,-3.6151,-3.6102,-3.6192,-3.6143,-3.6171,-3.6183,-3.6187,-3.6192,-3.6136,-3.6223,-3.6375,-3.6391,-3.6199,-3.6197,-3.6196,0,-3.5768,-3.585,-3.5924,-3.5944,-3.5985,-3.602,-3.6039,-3.6071,-3.6102,-3.6144,-3.6164,-3.6214,-3.6241,-3.628,-3.6285,-3.6249,-3.6376,-3.6327,-3.6382,-3.6382,-3.6407,-3.6405,-3.6565,-3.6428,-3.6428,-3.6428,-3.6428,0,-3.5888,-3.5953,-3.5964,-3.6009,-3.6082,-3.6082,-3.6154,-3.617,-3.62,-3.6249,-3.6235,-3.6282,-3.6286,-3.6334,-3.6339,-3.6413,-3.6426,-3.6432,-3.6432,-3.6432,-3.6431,-3.6449,-3.6441,-3.6432,-3.6431,-3.643,-3.643,0,-3.5997,-3.6007,-3.6086,-3.6119,-3.6129,-3.6181,-3.621,-3.6254,-3.6265,-3.6327,-3.6342,-3.636,-3.6416,-3.6426,-3.6492,-3.6496,-3.6584,-3.6577,-3.6571,-3.657,-3.6624,-3.6618,-3.6798,-3.6822,-3.6672,-3.6673,-3.6674,0,-3.6071,-3.6121,-3.616,-3.6192,-3.6212,-3.6263,-3.6295,-3.6298,-3.6332,-3.6378,-3.6417,-3.6472,-3.6515,-3.6607,-3.6626,-3.6677,-3.6671,-3.6731,-3.6678,-3.6677,-3.6671,-3.6667,-3.6672,-3.674,-3.6742,-3.6743,-3.6744,0,-3.6203,-3.6206,-3.6251,-3.63,-3.6338,-3.6377,-3.6413,-3.644,-3.6448,-3.6487,-3.6544,-3.6579,-3.6647,-3.6702,-3.6753,-3.6774,-3.6761,-3.6761,-3.6776,-3.6776,-3.677,-3.6773,-3.6597,-3.6756,-3.6755,-3.6754,-3.6753,-3.6753,-3.6296,-3.6339,-3.6374,-3.6426,-3.6454,-3.6488,-3.6531,-3.6549,-3.6596,-3.6651,-3.6651,-3.6714,-3.6751,-3.6818,-3.6843,-3.6893,-3.6874,-3.6896,-3.6902,-3.6907,-3.6911,-3.6764,-3.6903,-3.6903,-3.6902,-3.6902,-3.6902,0,-3.6425,-3.6447,-3.6495,-3.6546,-3.6588,-3.6573,-3.6613,-3.6648,-3.6704,-3.6739,-3.6783,-3.6849,-3.6903,-3.6928,-3.6982,-3.7017,-3.7013,-3.7031,-3.7027,-3.7032,-3.6926,-3.6906,-3.7034,-3.7034,-3.7034,-3.7034,-3.7034,-3.7034,-3.6497,-3.6569,-3.6577,-3.6664,-3.6686,-3.6747,-3.6771,-3.6804,-3.6832,-3.6906,-3.6951,-3.6967,-3.6999,-3.7055,-3.7104,-3.711,-3.713,-3.7151,-3.7154,-3.7053,-3.704,-3.7027,-3.7009,-3.7156,-3.7156,-3.7256,-3.7257,-3.7258]},{"header":{"parameterUnit":"m.s-1","parameterCategory":1,"la1":30.2991,"la2":30.254,"lo1":-89.0895,"lo2":-89.0444,"dy":0.0017,"dx":0.0017,"nx":28,"ny":28,"refTime":"2026-03-05T09:00:00:Z","depth":0,"parameterNumber":3,"parameterNumberName":"V-component_of_WINDS"},"data":[0,0,0,0,0,0,0,0,0,0,0,0,0,0,0,0,0,0,0,0,0,0,0,0,0,0,0,0,0,0,0,0,0,0,0,0,0,0,0,0,0,0,0,0,0,0,0,0,0,0,0,0,0,0,0,0,0,0,1.0255,1.0256,0,1.0351,1.0352,1.0353,1.0408,1.0408,1.0409,1.0409,1.0505,1.0507,1.051,0,0,0,0,0,0,0,0,0,0,0,0,0,1.0119,1.0121,1.0255,1.0256,1.0257,1.0351,1.0352,1.0353,1.0408,1.0408,1.0409,1.0409,1.0504,1.0507,1.051,0,0,0,0,0,0,0,0,0,0,0,0,0,1.0193,1.0122,1.0255,1.0296,1.0301,1.035,1.0352,1.0354,1.0408,1.0408,1.0409,1.0409,1.0503,1.0507,1.051,1.0526,0,0,1.0521,1.0523,0,0,0,0,0,0,0,0,1.0189,1.0198,1.0289,1.0293,1.0298,1.0368,1.034,1.0411,1.0408,1.0367,1.0409,1.0409,1.0459,1.0466,1.0484,1.0531,1.0535,1.0521,1.0524,1.0525,1.0526,0,0,0,0,0,0,0,1.0183,1.0194,1.0293,1.029,1.0296,1.031,1.032,1.0353,1.041,1.0371,1.0375,1.0386,1.0462,1.048,1.0486,1.0536,1.0521,1.0525,1.0527,1.0528,1.0604,1.0604,0,0,0,0,0,0,1.0172,1.0189,1.029,1.0296,1.0243,1.0312,1.0324,1.0345,1.041,1.042,1.0385,1.0388,1.0474,1.0482,1.049,1.0514,1.0525,1.0528,1.0531,1.0604,1.0604,1.0604,0,0,0,0,0,0,1.0169,1.018,1.0286,1.0244,1.0258,1.0314,1.0337,1.0347,1.0365,1.0421,1.0431,1.0393,1.0474,1.0485,1.0517,1.0518,1.053,1.0533,1.0604,1.0604,1.0604,1.0562,0,0,0,0,0,0,1.0165,1.0179,1.0185,1.0243,1.026,1.0312,1.0337,1.0349,1.0371,1.0376,1.0431,1.0441,1.0475,1.0512,1.0521,1.0523,1.0536,1.0604,1.0604,1.0604,1.0564,1.0561,1.0558,0,0,0,0,0,1.0159,1.0168,1.0185,1.0197,1.0269,1.0311,1.0321,1.0361,1.0371,1.0378,1.0415,1.0439,1.0517,1.0515,1.0525,1.0529,1.0604,1.0604,1.0604,1.0565,1.0561,1.0558,0,0,0,0,0,0,1.0107,1.0177,1.0196,1.0224,1.0262,1.0321,1.0331,1.0355,1.039,1.0393,1.0441,1.0453,1.0481,1.0508,1.0505,1.0549,1.0563,1.0565,1.053,1.0527,1.0524,1.0517,1.0539,0,0,0,0,0,1.0099,1.0128,1.0187,1.0206,1.0224,1.0274,1.0294,1.0322,1.0362,1.0378,1.0417,1.0455,1.0489,1.0509,1.0543,1.0568,1.0582,1.0576,1.0573,1.0571,1.0572,1.0589,1.0588,1.0603,1.0603,1.0603,0,0,1.0082,1.0124,1.0138,1.0197,1.0229,1.0258,1.0287,1.0316,1.0338,1.0382,1.0416,1.0446,1.0492,1.0522,1.0537,1.0545,1.0571,1.057,1.0568,1.057,1.0589,1.0588,1.0586,1.0603,1.0603,1.0603,0,0,1.0066,1.01,1.0121,1.0154,1.0203,1.0237,1.0242,1.0298,1.032,1.0355,1.039,1.0417,1.0473,1.0505,1.0529,1.0529,1.0553,1.0538,1.0523,1.054,1.0539,1.0538,1.0539,1.0539,1.0539,1.0539,1.0539,0,1.0039,1.0084,1.0128,1.0156,1.0181,1.0225,1.0247,1.0276,1.0333,1.035,1.0359,1.0432,1.0466,1.0505,1.0505,1.0523,1.0531,1.0532,1.0535,1.0535,1.0535,1.0537,1.0537,1.0537,1.0537,1.0537,1.0538,0,1.0049,1.008,1.0091,1.0147,1.0174,1.0198,1.0247,1.0268,1.0295,1.0328,1.0364,1.0406,1.0451,1.0462,1.0487,1.0505,1.0509,1.0526,1.0541,1.0531,1.0533,1.0534,1.0534,1.0535,1.0535,1.0536,0,0,1.0001,1.0084,1.0087,1.0114,1.0173,1.0198,1.0226,1.027,1.0289,1.0327,1.0352,1.04,1.0417,1.0444,1.0473,1.0488,1.0487,1.0504,1.0505,1.05,1.0512,1.0499,1.0499,1.0504,1.0505,1.0505,1.0509,0,0.9995,1.0047,1.0088,1.0125,1.0155,1.0198,1.0223,1.0262,1.0294,1.0325,1.036,1.0394,1.0413,1.043,1.0446,1.0484,1.0491,1.0484,1.0528,1.0529,1.0516,1.0501,1.0487,1.0488,1.051,1.051,1.051,0,0.9994,1.0033,1.0073,1.0131,1.0146,1.0167,1.0212,1.0241,1.0287,1.0309,1.0341,1.0372,1.0404,1.0417,1.0462,1.0457,1.0478,1.0499,1.0501,1.0506,1.0519,1.0507,1.049,1.049,1.0512,1.0512,1.0512,0,0.9956,1.0019,1.0052,1.0073,1.0142,1.0156,1.0186,1.0232,1.0257,1.0297,1.0314,1.0356,1.038,1.0412,1.0455,1.046,1.0496,1.0512,1.0516,1.0515,1.0522,1.0521,1.0508,1.0534,1.0534,1.0534,1.0534,0,0.9945,0.9968,1.0036,1.0056,1.0084,1.0132,1.0159,1.0191,1.0233,1.0261,1.03,1.0325,1.038,1.0412,1.0445,1.0479,1.0488,1.0508,1.0517,1.0505,1.0503,1.0519,1.0521,1.0534,1.0534,1.0534,1.0534,0,0.9908,0.9954,0.9993,1.0056,1.0073,1.009,1.0145,1.0166,1.0202,1.0236,1.0247,1.0302,1.0343,1.0388,1.0443,1.0466,1.0497,1.0509,1.0482,1.0487,1.0489,1.0489,1.0487,1.049,1.0513,1.0512,1.0512,0,0.9898,0.9917,0.9983,1.0005,1.0034,1.0068,1.0095,1.0144,1.017,1.0225,1.024,1.0284,1.0321,1.0383,1.0428,1.0471,1.0485,1.0482,1.0491,1.048,1.0486,1.0485,1.0488,1.0479,1.0478,1.0478,1.0477,0,0.9876,0.9898,0.9935,0.9981,1.0012,1.005,1.0089,1.0105,1.0162,1.019,1.0232,1.0261,1.0318,1.0361,1.041,1.044,1.0469,1.0474,1.0478,1.0466,1.045,1.046,1.0475,1.0474,1.0474,1.0474,1.0475,1.0475,0.9853,0.9873,0.9923,0.9963,0.9999,1.0036,1.006,1.0099,1.0136,1.0187,1.0214,1.0256,1.0304,1.0373,1.0402,1.0436,1.0446,1.045,1.0452,1.0452,1.045,1.0444,1.0445,1.0445,1.0446,1.0446,1.0446,0,0.9833,0.9869,0.9906,0.9961,0.9993,1.0019,1.0065,1.009,1.0127,1.0169,1.0206,1.0256,1.0299,1.0348,1.0394,1.0412,1.0426,1.0422,1.0422,1.0429,1.0438,1.0431,1.041,1.041,1.041,1.041,1.041,1.041,0.9827,0.9863,0.9892,0.9947,0.9982,1.0025,1.0049,1.0084,1.0119,1.0172,1.0209,1.0241,1.0287,1.0337,1.0378,1.0392,1.0407,1.0399,1.0417,1.0425,1.0428,1.043,1.0424,1.0402,1.0402,1.0405,1.0405,1.0405]}]]